[[{"header":{"parameterUnit":"m.s-1","parameterCategory":2,"la1":30.2991,"la2":30.254,"lo1":-89.0895,"lo2":-89.0444,"dy":0.0017,"dx":0.0017,"nx":28,"ny":28,"refTime":"2024-12-13T09:00:00:Z","depth":"0","parameterNumber":2,"parameterNumberName":"U-component_of_CURRENTS"},"data":[0,0,0,0,0,0,0,0,0,0,0,0,0,0,0,0,0,0,0,0,0,0,0,0,0,0,0,0,0,0,0,0,0,0,0,0,0,0,0,0,0,0,0,0,0,0,0,0,0,0,0,0,0,0,0,0,0,0,-0.2361,-0.2362,0,-0.2376,-0.2375,-0.2375,-0.2351,-0.235,-0.235,-0.2349,-0.231,-0.231,-0.2309,0,0,0,0,0,0,0,0,0,0,0,0,0,-0.2299,-0.2301,-0.2361,-0.2362,-0.2362,-0.2376,-0.2375,-0.2375,-0.2351,-0.235,-0.2349,-0.2349,-0.231,-0.231,-0.2309,0,0,0,0,0,0,0,0,0,0,0,0,0,-0.2319,-0.2301,-0.2361,-0.2353,-0.2353,-0.2376,-0.2375,-0.2375,-0.2351,-0.235,-0.2349,-0.2348,-0.231,-0.231,-0.2309,-0.2323,0,0,-0.2307,-0.2307,0,0,0,0,0,0,0,0,-0.2318,-0.2321,-0.2354,-0.2354,-0.2353,-0.2363,-0.234,-0.2356,-0.2351,-0.2349,-0.2349,-0.2348,-0.2325,-0.2323,-0.2325,-0.2321,-0.2319,-0.2307,-0.2306,-0.2306,-0.2306,0,0,0,0,0,0,0,-0.2316,-0.232,-0.2364,-0.2355,-0.2354,-0.2345,-0.2346,-0.2343,-0.2339,-0.2349,-0.2348,-0.2354,-0.2324,-0.2326,-0.2324,-0.2319,-0.2307,-0.2306,-0.2306,-0.2305,-0.2327,-0.2328,0,0,0,0,0,0,-0.2322,-0.2319,-0.2364,-0.2365,-0.2336,-0.2347,-0.2348,-0.2359,-0.234,-0.2338,-0.2355,-0.2353,-0.2327,-0.2325,-0.2322,-0.2342,-0.2306,-0.2305,-0.2305,-0.2326,-0.2327,-0.2328,0,0,0,0,0,0,-0.2321,-0.2326,-0.2363,-0.2344,-0.2348,-0.2349,-0.236,-0.2359,-0.2358,-0.2345,-0.2341,-0.2354,-0.2327,-0.2323,-0.2324,-0.234,-0.2305,-0.2304,-0.2325,-0.2326,-0.2328,-0.2378,0,0,0,0,0,0,-0.2319,-0.2325,-0.2329,-0.2345,-0.235,-0.2383,-0.2362,-0.236,-0.2364,-0.2362,-0.2344,-0.2339,-0.2326,-0.2325,-0.2323,-0.2338,-0.2304,-0.2323,-0.2325,-0.2327,-0.2375,-0.2381,-0.2386,0,0,0,0,0,-0.2317,-0.2329,-0.2329,-0.2334,-0.2357,-0.2384,-0.2386,-0.2381,-0.2365,-0.2374,-0.236,-0.234,-0.2335,-0.2326,-0.2323,-0.2338,-0.2323,-0.2325,-0.2327,-0.2372,-0.238,-0.2386,0,0,0,0,0,0,-0.23,-0.2329,-0.2329,-0.2348,-0.2367,-0.2381,-0.2385,-0.2384,-0.2381,-0.2371,-0.2352,-0.2348,-0.2356,-0.2342,-0.2331,-0.2351,-0.2326,-0.2328,-0.2361,-0.2368,-0.2373,-0.2377,-0.2303,0,0,0,0,0,-0.2302,-0.2317,-0.2344,-0.2356,-0.2368,-0.2376,-0.2383,-0.2386,-0.2388,-0.2385,-0.2375,-0.2365,-0.2366,-0.2361,-0.2359,-0.2368,-0.2354,-0.2377,-0.2383,-0.2387,-0.2389,-0.2387,-0.2392,-0.2336,-0.2336,-0.2336,0,0,-0.2296,-0.2314,-0.2321,-0.2354,-0.2363,-0.239,-0.2377,-0.2395,-0.2412,-0.2382,-0.2392,-0.2384,-0.2373,-0.2386,-0.2388,-0.2374,-0.2397,-0.239,-0.2394,-0.2393,-0.239,-0.2395,-0.24,-0.2337,-0.2337,-0.2337,0,0,-0.23,-0.2313,-0.233,-0.2354,-0.2381,-0.2394,-0.2402,-0.2422,-0.2424,-0.244,-0.2424,-0.2428,-0.2423,-0.2426,-0.2424,-0.2459,-0.2428,-0.2455,-0.2483,-0.2481,-0.2486,-0.2489,-0.2482,-0.2484,-0.2456,-0.2456,-0.2456,0,-0.2291,-0.2318,-0.2338,-0.2367,-0.2385,-0.2399,-0.2424,-0.244,-0.2455,-0.2462,-0.2447,-0.2454,-0.2445,-0.2465,-0.2478,-0.2472,-0.246,-0.2458,-0.2488,-0.2491,-0.2494,-0.2485,-0.2488,-0.2458,-0.2458,-0.2458,-0.2458,0,-0.2312,-0.2336,-0.2349,-0.239,-0.2416,-0.244,-0.2473,-0.2491,-0.2492,-0.2503,-0.2521,-0.2514,-0.2515,-0.2519,-0.2507,-0.2529,-0.251,-0.2497,-0.247,-0.2503,-0.2492,-0.2493,-0.2462,-0.2461,-0.246,-0.246,0,0,-0.2279,-0.235,-0.2352,-0.2375,-0.243,-0.2451,-0.2492,-0.253,-0.2549,-0.2561,-0.258,-0.259,-0.2579,-0.2577,-0.2567,-0.2569,-0.2582,-0.2541,-0.254,-0.2532,-0.2571,-0.252,-0.2516,-0.2569,-0.2569,-0.257,-0.2556,0,-0.2283,-0.2335,-0.2373,-0.2418,-0.2447,-0.2487,-0.2524,-0.2561,-0.2581,-0.2605,-0.2609,-0.262,-0.2604,-0.2601,-0.2604,-0.2588,-0.2587,-0.2587,-0.2542,-0.2541,-0.2489,-0.2517,-0.2443,-0.2421,-0.2557,-0.2557,-0.2557,0,-0.2284,-0.2321,-0.2367,-0.2435,-0.2451,-0.2481,-0.2537,-0.2574,-0.2622,-0.2636,-0.2654,-0.2654,-0.2668,-0.2643,-0.2635,-0.2632,-0.2605,-0.259,-0.2589,-0.2523,-0.2492,-0.2409,-0.2418,-0.2414,-0.2559,-0.2559,-0.2559,0,-0.2239,-0.2312,-0.2344,-0.2369,-0.245,-0.2474,-0.2513,-0.2572,-0.2603,-0.265,-0.2667,-0.2686,-0.2685,-0.2669,-0.2641,-0.2635,-0.2622,-0.2609,-0.254,-0.2536,-0.2455,-0.2443,-0.2451,-0.2599,-0.2599,-0.2599,-0.2599,0,-0.2225,-0.2248,-0.2323,-0.2341,-0.2375,-0.2446,-0.2484,-0.253,-0.2594,-0.2622,-0.2668,-0.2684,-0.2689,-0.2683,-0.2654,-0.2601,-0.263,-0.2548,-0.2531,-0.2471,-0.2461,-0.2438,-0.2448,-0.2598,-0.2598,-0.2599,-0.2599,0,-0.2163,-0.2219,-0.2254,-0.2333,-0.2353,-0.2373,-0.2455,-0.2483,-0.2559,-0.2597,-0.2611,-0.2678,-0.2672,-0.267,-0.2645,-0.2606,-0.2526,-0.2539,-0.2467,-0.2441,-0.2363,-0.2378,-0.2325,-0.2257,-0.2461,-0.246,-0.2458,0,-0.2135,-0.2146,-0.2218,-0.223,-0.226,-0.2306,-0.2335,-0.2436,-0.2472,-0.2581,-0.2588,-0.2626,-0.2627,-0.2594,-0.2544,-0.2491,-0.2469,-0.2383,-0.236,-0.2352,-0.2357,-0.2345,-0.229,-0.2276,-0.2274,-0.2272,-0.227,0,-0.2063,-0.2085,-0.211,-0.214,-0.2167,-0.2206,-0.2261,-0.2293,-0.2409,-0.2455,-0.2512,-0.2532,-0.2534,-0.2469,-0.2418,-0.2364,-0.2329,-0.2338,-0.235,-0.2231,-0.2198,-0.2124,-0.2297,-0.2252,-0.2254,-0.2255,-0.2256,-0.2257,-0.1985,-0.198,-0.201,-0.2026,-0.2057,-0.2083,-0.2079,-0.2161,-0.2208,-0.227,-0.2371,-0.2397,-0.2398,-0.2323,-0.2275,-0.2184,-0.2192,-0.2124,-0.2149,-0.2141,-0.2058,-0.2188,-0.211,-0.2111,-0.2112,-0.2113,-0.2114,0,-0.1879,-0.1885,-0.1894,-0.1911,-0.1896,-0.1956,-0.2,-0.1984,-0.1997,-0.2111,-0.2152,-0.2237,-0.2177,-0.2184,-0.2119,-0.2035,-0.1966,-0.1984,-0.1965,-0.1919,-0.205,-0.2025,-0.1901,-0.1901,-0.1901,-0.1901,-0.1901,-0.1901,-0.1822,-0.1788,-0.1796,-0.1735,-0.1743,-0.1687,-0.1684,-0.1688,-0.1739,-0.1807,-0.1914,-0.2045,-0.2084,-0.2198,-0.2097,-0.1992,-0.1924,-0.1861,-0.1862,-0.1994,-0.201,-0.2025,-0.2004,-0.1878,-0.1878,-0.1664,-0.1663,-0.1662]},{"header":{"parameterUnit":"m.s-1","parameterCategory":2,"la1":30.2991,"la2":30.254,"lo1":-89.0895,"lo2":-89.0444,"dy":0.0017,"dx":0.0017,"nx":28,"ny":28,"refTime":"2024-12-13T09:00:00:Z","depth":"0","parameterNumber":3,"parameterNumberName":"V-component_of_CURRENTS"},"data":[0,0,0,0,0,0,0,0,0,0,0,0,0,0,0,0,0,0,0,0,0,0,0,0,0,0,0,0,0,0,0,0,0,0,0,0,0,0,0,0,0,0,0,0,0,0,0,0,0,0,0,0,0,0,0,0,0,0,-0.0254,-0.0253,0,-0.0179,-0.0178,-0.0177,-0.0126,-0.0126,-0.0126,-0.0126,-0.0023,-0.0021,-0.0018,0,0,0,0,0,0,0,0,0,0,0,0,0,-0.0301,-0.0301,-0.0254,-0.0253,-0.0252,-0.018,-0.0178,-0.0177,-0.0126,-0.0126,-0.0126,-0.0126,-0.0024,-0.0021,-0.0018,0,0,0,0,0,0,0,0,0,0,0,0,0,-0.0258,-0.03,-0.0254,-0.0219,-0.0215,-0.018,-0.0178,-0.0177,-0.0126,-0.0126,-0.0126,-0.0125,-0.0025,-0.0021,-0.0018,-0.0002,0,0,-0.0006,-0.0005,0,0,0,0,0,0,0,0,-0.026,-0.0256,-0.0225,-0.0221,-0.0217,-0.0163,-0.0157,-0.0118,-0.0127,-0.0159,-0.0126,-0.0125,-0.0068,-0.0061,-0.0046,0.0003,0.0007,-0.0006,-0.0004,-0.0002,-0.0001,0,0,0,0,0,0,0,-0.0264,-0.0259,-0.0223,-0.0224,-0.0219,-0.019,-0.0184,-0.0149,-0.0115,-0.0156,-0.0152,-0.0146,-0.0066,-0.005,-0.0044,0.0008,-0.0006,-0.0003,-0.0,0.0001,0.0083,0.0083,0,0,0,0,0,0,-0.0278,-0.0262,-0.0225,-0.0221,-0.024,-0.019,-0.0182,-0.018,-0.0116,-0.0107,-0.0147,-0.0144,-0.0057,-0.0048,-0.004,-0.0018,-0.0002,0.0001,0.0004,0.0083,0.0083,0.0083,0,0,0,0,0,0,-0.028,-0.0276,-0.0228,-0.024,-0.0232,-0.019,-0.0186,-0.0178,-0.0163,-0.011,-0.0099,-0.0141,-0.0056,-0.0045,-0.0011,-0.0014,0.0003,0.0007,0.0083,0.0083,0.0083,0.0025,0,0,0,0,0,0,-0.0282,-0.0277,-0.0281,-0.0242,-0.0232,-0.0216,-0.0187,-0.0177,-0.0161,-0.0157,-0.0101,-0.0091,-0.0055,-0.0017,-0.0007,-0.0008,0.0009,0.0083,0.0083,0.0083,0.0027,0.0023,0.002,0,0,0,0,0,-0.0284,-0.0295,-0.0282,-0.0278,-0.0239,-0.0216,-0.0209,-0.0176,-0.0161,-0.016,-0.0119,-0.0092,-0.0011,-0.0014,-0.0003,-0.0003,0.0083,0.0083,0.0083,0.0029,0.0024,0.002,0,0,0,0,0,0,-0.0318,-0.029,-0.0275,-0.0277,-0.0252,-0.0208,-0.0205,-0.0181,-0.0148,-0.0144,-0.0091,-0.0079,-0.005,-0.0019,-0.0024,0.0021,0.004,0.0042,-0.0005,-0.0009,-0.0013,-0.0027,0.0013,0,0,0,0,0,-0.0329,-0.0329,-0.0295,-0.0297,-0.0287,-0.0247,-0.0233,-0.0212,-0.0177,-0.0162,-0.0121,-0.0079,-0.0042,-0.0021,0.0015,0.0039,0.0077,0.0047,0.0043,0.0039,0.0036,0.009,0.009,0.0083,0.0083,0.0083,0,0,-0.0343,-0.0328,-0.0328,-0.0304,-0.0281,-0.0277,-0.0238,-0.0224,-0.0216,-0.0156,-0.0133,-0.0091,-0.0038,-0.001,0.0005,0.0015,0.0061,0.0039,0.0036,0.0034,0.009,0.009,0.0091,0.0083,0.0083,0.0083,0,0,-0.0377,-0.0358,-0.0372,-0.0355,-0.0329,-0.0302,-0.0302,-0.0262,-0.0239,-0.0213,-0.0167,-0.0127,-0.0074,-0.0034,-0.0007,-0.001,0.0039,0.0,-0.0028,0.0024,0.0025,0.0027,0.0073,0.0079,-0.0001,-0.0001,-0.0001,0,-0.0396,-0.0407,-0.0372,-0.0379,-0.0371,-0.032,-0.0331,-0.03,-0.0252,-0.0233,-0.0216,-0.0127,-0.0085,-0.004,-0.0041,-0.0018,0.0017,-0.0017,0.0019,0.0021,0.0023,0.0071,0.0078,-0.0004,-0.0003,-0.0003,-0.0003,0,-0.0438,-0.0445,-0.0452,-0.0443,-0.0429,-0.043,-0.0385,-0.0364,-0.033,-0.0293,-0.0243,-0.0179,-0.0125,-0.0105,-0.0074,-0.0035,-0.0014,0.0006,0.0027,0.0021,0.0071,0.008,-0.0008,-0.0007,-0.0006,-0.0005,0,0,-0.0485,-0.0484,-0.0485,-0.0495,-0.0464,-0.0458,-0.044,-0.0406,-0.0391,-0.0334,-0.0305,-0.0236,-0.0192,-0.0159,-0.0107,-0.0061,-0.0014,-0.0027,-0.0023,0.0013,0.01,0.0146,0.016,0.0013,0.0014,0.0015,0.0127,0,-0.0529,-0.0567,-0.0545,-0.0571,-0.0586,-0.0533,-0.0521,-0.048,-0.043,-0.0386,-0.0305,-0.0259,-0.0213,-0.0185,-0.0133,-0.0039,0.0007,-0.0046,0.0106,0.011,0.0148,0.0171,0.0205,0.0311,0.0136,0.0138,0.0139,0,-0.0577,-0.0596,-0.0637,-0.0639,-0.0638,-0.0639,-0.0604,-0.0585,-0.0505,-0.0464,-0.0394,-0.0323,-0.0239,-0.0205,-0.0052,-0.0088,-0.0005,0.0065,0.0072,0.0141,0.0173,0.0291,0.0334,0.0495,0.0153,0.0152,0.0151,0,-0.0634,-0.0657,-0.0695,-0.0696,-0.0688,-0.0688,-0.0673,-0.0611,-0.0592,-0.0507,-0.0475,-0.0363,-0.0298,-0.0182,-0.0029,-0.004,0.0141,0.0147,0.0266,0.027,0.0342,0.0351,0.0555,0.0245,0.0245,0.0245,0.0245,0,-0.0692,-0.0719,-0.0727,-0.0749,-0.0783,-0.0748,-0.0756,-0.072,-0.0662,-0.0637,-0.052,-0.0464,-0.0289,-0.0158,-0.0035,0.0154,0.0143,0.0269,0.0307,0.0323,0.0328,0.0507,0.0559,0.0249,0.0248,0.0247,0.0247,0,-0.075,-0.0755,-0.0801,-0.0811,-0.0816,-0.0838,-0.0826,-0.0824,-0.0756,-0.0716,-0.0691,-0.053,-0.0349,-0.0166,0.0042,0.0154,0.042,0.0384,0.0391,0.0427,0.0674,0.072,0.0941,0.1018,0.053,0.0532,0.0534,0,-0.0784,-0.0815,-0.0856,-0.0887,-0.0895,-0.0917,-0.0931,-0.0883,-0.087,-0.0752,-0.0734,-0.0548,-0.04,-0.0066,0.0171,0.0414,0.0519,0.0576,0.056,0.0708,0.0787,0.0816,0.0865,0.0634,0.0636,0.0638,0.064,0,-0.0845,-0.0858,-0.0894,-0.0965,-0.0997,-0.1028,-0.1034,-0.104,-0.0968,-0.0907,-0.0786,-0.0656,-0.0308,0.0005,0.0333,0.0477,0.0694,0.0621,0.0785,0.0898,0.0934,0.1018,0.0533,0.0657,0.0655,0.0654,0.0653,0.0652,-0.0879,-0.0923,-0.0974,-0.1036,-0.108,-0.1122,-0.1142,-0.1121,-0.1091,-0.0982,-0.0843,-0.062,-0.0146,0.0335,0.0512,0.0902,0.0849,0.1009,0.1055,0.1074,0.1146,0.0694,0.085,0.085,0.0849,0.0849,0.0848,0,-0.0921,-0.097,-0.104,-0.1112,-0.1173,-0.1175,-0.1197,-0.1192,-0.1151,-0.1009,-0.0861,-0.035,0.0124,0.0557,0.1115,0.1327,0.1357,0.1431,0.149,0.1519,0.1144,0.1148,0.1365,0.1365,0.1364,0.1364,0.1364,0.1364,-0.0943,-0.1019,-0.1059,-0.1171,-0.1221,-0.1273,-0.1284,-0.1252,-0.1158,-0.091,-0.0633,-0.0409,0.0254,0.1185,0.1715,0.1758,0.1914,0.1902,0.1983,0.1737,0.1701,0.1667,0.1687,0.2013,0.2014,0.2345,0.2349,0.2351]}],[{"header":{"parameterUnit":"m.s-1","parameterCategory":2,"la1":30.2991,"la2":30.254,"lo1":-89.0895,"lo2":-89.0444,"dy":0.0017,"dx":0.0017,"nx":28,"ny":28,"refTime":"2024-12-13T09:00:00:Z","depth":"2","parameterNumber":2,"parameterNumberName":"U-component_of_CURRENTS"},"data":[0,0,0,0,0,0,0,0,0,0,0,0,0,0,0,0,0,0,0,0,0,0,0,0,0,0,0,0,0,0,0,0,0,0,0,0,0,0,0,0,0,0,0,0,0,0,0,0,0,0,0,0,0,0,0,0,0,0,-0.2184,-0.2185,0,-0.22,-0.22,-0.22,-0.218,-0.218,-0.2179,-0.2179,-0.2147,-0.2147,-0.2146,0,0,0,0,0,0,0,0,0,0,0,0,0,-0.2126,-0.2127,-0.2184,-0.2185,-0.2185,-0.22,-0.22,-0.22,-0.218,-0.218,-0.2179,-0.2179,-0.2147,-0.2147,-0.2146,0,0,0,0,0,0,0,0,0,0,0,0,0,-0.2145,-0.2127,-0.2184,-0.2179,-0.2179,-0.22,-0.22,-0.22,-0.218,-0.218,-0.2179,-0.2178,-0.2147,-0.2147,-0.2146,-0.2157,0,0,-0.2144,-0.2144,0,0,0,0,0,0,0,0,-0.2144,-0.2146,-0.2179,-0.218,-0.2179,-0.2189,-0.2167,-0.2184,-0.2181,-0.2177,-0.2179,-0.2178,-0.2159,-0.2158,-0.2159,-0.2155,-0.2154,-0.2144,-0.2144,-0.2144,-0.2143,0,0,0,0,0,0,0,-0.2142,-0.2146,-0.2188,-0.218,-0.218,-0.2172,-0.2174,-0.217,-0.2169,-0.2177,-0.2177,-0.2183,-0.2158,-0.216,-0.2158,-0.2153,-0.2144,-0.2144,-0.2143,-0.2143,-0.2167,-0.2168,0,0,0,0,0,0,-0.2147,-0.2145,-0.2187,-0.2188,-0.2162,-0.2174,-0.2176,-0.2185,-0.217,-0.2168,-0.2183,-0.2182,-0.2161,-0.2159,-0.2157,-0.218,-0.2144,-0.2143,-0.2143,-0.2166,-0.2168,-0.2169,0,0,0,0,0,0,-0.2146,-0.2151,-0.2187,-0.2168,-0.2173,-0.2176,-0.2186,-0.2186,-0.2187,-0.2176,-0.2172,-0.2186,-0.216,-0.2158,-0.2161,-0.2178,-0.2143,-0.2142,-0.2165,-0.2167,-0.2168,-0.2218,0,0,0,0,0,0,-0.2144,-0.2151,-0.2155,-0.2169,-0.2174,-0.2207,-0.2187,-0.2187,-0.2193,-0.2191,-0.2177,-0.2173,-0.216,-0.2162,-0.216,-0.2176,-0.2142,-0.2164,-0.2166,-0.2168,-0.2216,-0.2222,-0.2227,0,0,0,0,0,-0.2142,-0.2155,-0.2155,-0.216,-0.2182,-0.2208,-0.221,-0.2207,-0.2194,-0.2204,-0.2192,-0.2173,-0.2173,-0.2163,-0.216,-0.2176,-0.2163,-0.2165,-0.2167,-0.2213,-0.222,-0.2226,0,0,0,0,0,0,-0.2129,-0.2155,-0.2155,-0.2174,-0.2193,-0.2206,-0.2212,-0.2211,-0.2211,-0.2204,-0.2186,-0.2182,-0.2193,-0.2179,-0.2169,-0.219,-0.2165,-0.2167,-0.2201,-0.2207,-0.2213,-0.2216,-0.2141,0,0,0,0,0,-0.213,-0.2145,-0.217,-0.2183,-0.2195,-0.2203,-0.2211,-0.2214,-0.2219,-0.2217,-0.2209,-0.2201,-0.2202,-0.2199,-0.2198,-0.2208,-0.2194,-0.2218,-0.2223,-0.2228,-0.223,-0.2228,-0.2233,-0.2176,-0.2176,-0.2176,0,0,-0.2126,-0.2143,-0.215,-0.2181,-0.2191,-0.2217,-0.2205,-0.2225,-0.2242,-0.2214,-0.2227,-0.222,-0.221,-0.2224,-0.2227,-0.2213,-0.2239,-0.2231,-0.2235,-0.2235,-0.2231,-0.2236,-0.2241,-0.2178,-0.2177,-0.2177,0,0,-0.2132,-0.2145,-0.2161,-0.2185,-0.2212,-0.2224,-0.2232,-0.2253,-0.2257,-0.2274,-0.226,-0.2266,-0.2263,-0.2265,-0.2263,-0.2299,-0.227,-0.2297,-0.2325,-0.2323,-0.2327,-0.2331,-0.2325,-0.2328,-0.2297,-0.2297,-0.2297,0,-0.2125,-0.2151,-0.217,-0.2198,-0.2216,-0.223,-0.2256,-0.2271,-0.2288,-0.2296,-0.2284,-0.2293,-0.2285,-0.2304,-0.2318,-0.2312,-0.2301,-0.2299,-0.2329,-0.2333,-0.2336,-0.2329,-0.2331,-0.23,-0.2299,-0.2299,-0.2299,0,-0.2146,-0.217,-0.2184,-0.2223,-0.2248,-0.2272,-0.2304,-0.2324,-0.2328,-0.2339,-0.2358,-0.2352,-0.2355,-0.2359,-0.2348,-0.2371,-0.2353,-0.2338,-0.2311,-0.2344,-0.2335,-0.2337,-0.2303,-0.2303,-0.2302,-0.2301,0,0,-0.2119,-0.2185,-0.2188,-0.2211,-0.2263,-0.2284,-0.2325,-0.2362,-0.2381,-0.2396,-0.2416,-0.2427,-0.2419,-0.2417,-0.2408,-0.2409,-0.2425,-0.2384,-0.2382,-0.2376,-0.2416,-0.2364,-0.236,-0.2411,-0.2412,-0.2412,-0.2402,0,-0.2125,-0.2175,-0.221,-0.2255,-0.2283,-0.2321,-0.2358,-0.2394,-0.2415,-0.244,-0.2444,-0.2457,-0.2443,-0.2442,-0.2446,-0.243,-0.2431,-0.2429,-0.2386,-0.2385,-0.2333,-0.2361,-0.2171,-0.2143,-0.2403,-0.2404,-0.2404,0,-0.2128,-0.2163,-0.2208,-0.2272,-0.2288,-0.2318,-0.2373,-0.2409,-0.2456,-0.2472,-0.2491,-0.2492,-0.2507,-0.2483,-0.2477,-0.2474,-0.245,-0.2436,-0.2434,-0.2368,-0.2336,-0.2151,-0.2136,-0.2406,-0.2406,-0.2406,-0.2406,0,-0.2088,-0.2158,-0.219,-0.2213,-0.229,-0.2315,-0.2353,-0.241,-0.2439,-0.2488,-0.2506,-0.2525,-0.2526,-0.2511,-0.2485,-0.248,-0.2468,-0.2454,-0.2387,-0.2383,-0.2204,-0.2183,-0.2446,-0.2446,-0.2446,-0.2446,-0.2446,0,-0.2077,-0.21,-0.2172,-0.219,-0.2224,-0.2291,-0.233,-0.2374,-0.2435,-0.2462,-0.2509,-0.2524,-0.2531,-0.2525,-0.2499,-0.2447,-0.2476,-0.2396,-0.2379,-0.2217,-0.2199,-0.241,-0.2406,-0.2446,-0.2446,-0.2446,-0.2446,0,-0.2021,-0.2074,-0.2108,-0.2184,-0.2205,-0.2225,-0.2304,-0.2329,-0.2404,-0.2441,-0.2456,-0.2519,-0.2515,-0.2514,-0.2491,-0.2453,-0.2416,-0.2388,-0.2201,-0.2161,-0.2331,-0.233,-0.2317,-0.2315,-0.2313,-0.2312,-0.2311,0,-0.1996,-0.2008,-0.2077,-0.2088,-0.2118,-0.2164,-0.2191,-0.2288,-0.232,-0.2424,-0.2428,-0.2467,-0.2465,-0.2433,-0.2369,-0.2316,-0.2373,-0.2114,-0.2074,-0.2334,-0.2318,-0.232,-0.2321,-0.1856,-0.1851,-0.1847,-0.1844,0,-0.1929,-0.1952,-0.1976,-0.2004,-0.203,-0.2066,-0.2118,-0.2146,-0.2255,-0.2297,-0.2346,-0.2362,-0.2351,-0.2216,-0.2164,-0.2102,-0.2111,-0.2035,-0.2339,-0.1928,-0.1901,-0.1885,-0.1901,-0.1809,-0.1813,-0.1815,-0.1817,-0.1818,-0.1857,-0.1852,-0.1881,-0.1896,-0.1925,-0.1945,-0.1938,-0.2007,-0.2045,-0.2074,-0.2178,-0.2135,-0.2121,-0.1948,-0.1858,-0.1782,-0.1925,-0.1822,-0.1833,-0.1848,-0.1807,-0.178,-0.1657,-0.166,-0.1662,-0.1664,-0.1665,0,-0.1754,-0.1761,-0.177,-0.1783,-0.1763,-0.1825,-0.1859,-0.1821,-0.1815,-0.187,-0.1883,-0.1698,-0.163,-0.1624,-0.1462,-0.1441,-0.1411,-0.1371,-0.1324,-0.1359,-0.139,-0.1325,-0.1047,-0.1045,-0.1044,-0.1042,0,0,-0.17,-0.1665,-0.167,-0.1605,-0.1613,-0.1548,-0.154,-0.1501,-0.1499,-0.1434,-0.141,-0.1533,-0.1577,-0.1309,-0.1249,-0.1126,-0.1226,-0.1065,-0.1559,-0.1537,-0.1566,-0.1646,-0.1585,0,0,0,0,0]},{"header":{"parameterUnit":"m.s-1","parameterCategory":2,"la1":30.2991,"la2":30.254,"lo1":-89.0895,"lo2":-89.0444,"dy":0.0017,"dx":0.0017,"nx":28,"ny":28,"refTime":"2024-12-13T09:00:00:Z","depth":"2","parameterNumber":3,"parameterNumberName":"V-component_of_CURRENTS"},"data":[0,0,0,0,0,0,0,0,0,0,0,0,0,0,0,0,0,0,0,0,0,0,0,0,0,0,0,0,0,0,0,0,0,0,0,0,0,0,0,0,0,0,0,0,0,0,0,0,0,0,0,0,0,0,0,0,0,0,-0.0239,-0.0239,0,-0.0167,-0.0166,-0.0165,-0.0116,-0.0116,-0.0116,-0.0116,-0.0016,-0.0014,-0.0011,0,0,0,0,0,0,0,0,0,0,0,0,0,-0.0285,-0.0284,-0.0239,-0.0239,-0.0238,-0.0167,-0.0166,-0.0165,-0.0116,-0.0116,-0.0116,-0.0116,-0.0017,-0.0014,-0.0011,0,0,0,0,0,0,0,0,0,0,0,0,0,-0.0243,-0.0284,-0.024,-0.0206,-0.0202,-0.0168,-0.0166,-0.0165,-0.0117,-0.0116,-0.0116,-0.0116,-0.0018,-0.0014,-0.0011,0.0005,0,0,0.0001,0.0002,0,0,0,0,0,0,0,0,-0.0246,-0.0241,-0.0212,-0.0208,-0.0204,-0.0152,-0.0146,-0.0107,-0.0117,-0.0148,-0.0116,-0.0115,-0.006,-0.0053,-0.0038,0.001,0.0014,0.0001,0.0003,0.0005,0.0006,0,0,0,0,0,0,0,-0.0249,-0.0244,-0.0209,-0.0211,-0.0206,-0.0177,-0.0171,-0.0138,-0.0105,-0.0145,-0.0142,-0.0136,-0.0057,-0.0042,-0.0036,0.0016,0.0001,0.0004,0.0006,0.0008,0.009,0.009,0,0,0,0,0,0,-0.0263,-0.0247,-0.0212,-0.0207,-0.0226,-0.0177,-0.017,-0.0168,-0.0106,-0.0097,-0.0136,-0.0134,-0.0049,-0.004,-0.0032,-0.0009,0.0005,0.0008,0.001,0.009,0.009,0.009,0,0,0,0,0,0,-0.0264,-0.0261,-0.0215,-0.0226,-0.0219,-0.0177,-0.0174,-0.0167,-0.0152,-0.01,-0.009,-0.013,-0.0048,-0.0037,-0.0003,-0.0005,0.001,0.0013,0.009,0.009,0.009,0.0037,0,0,0,0,0,0,-0.0266,-0.0262,-0.0266,-0.0228,-0.0219,-0.0202,-0.0175,-0.0165,-0.015,-0.0146,-0.0091,-0.0081,-0.0047,-0.0009,0.0,0.0001,0.0016,0.009,0.009,0.009,0.0038,0.0035,0.0032,0,0,0,0,0,-0.0268,-0.0279,-0.0267,-0.0263,-0.0226,-0.0202,-0.0195,-0.0163,-0.015,-0.0148,-0.0108,-0.0083,-0.0003,-0.0006,0.0005,0.0006,0.009,0.009,0.009,0.004,0.0035,0.0032,0,0,0,0,0,0,-0.0301,-0.0274,-0.026,-0.0262,-0.0237,-0.0195,-0.0191,-0.0169,-0.0136,-0.0132,-0.0082,-0.0069,-0.004,-0.001,-0.0016,0.003,0.0047,0.0049,0.0005,0.0002,-0.0002,-0.0015,0.0019,0,0,0,0,0,-0.0312,-0.0312,-0.0278,-0.028,-0.0271,-0.0232,-0.0219,-0.0198,-0.0164,-0.0149,-0.011,-0.0068,-0.0032,-0.0011,0.0024,0.0049,0.0084,0.0057,0.0054,0.0051,0.0047,0.0099,0.01,0.009,0.009,0.009,0,0,-0.0325,-0.031,-0.0311,-0.0287,-0.0265,-0.0259,-0.0223,-0.021,-0.02,-0.0143,-0.012,-0.0079,-0.0028,0.0001,0.0016,0.0025,0.0072,0.0051,0.0047,0.0046,0.0099,0.01,0.0101,0.009,0.009,0.009,0,0,-0.0357,-0.034,-0.0352,-0.0335,-0.031,-0.0284,-0.0284,-0.0244,-0.0222,-0.0196,-0.0151,-0.0112,-0.006,-0.002,0.0007,0.0006,0.0051,0.0016,-0.001,0.004,0.0041,0.0043,0.0086,0.0091,0.0015,0.0015,0.0015,0,-0.0376,-0.0385,-0.0352,-0.0358,-0.035,-0.03,-0.0309,-0.0279,-0.0233,-0.0213,-0.0198,-0.011,-0.0069,-0.0023,-0.0024,-0.0002,0.0031,-0.0,0.0035,0.0038,0.004,0.0084,0.0091,0.0012,0.0013,0.0013,0.0013,0,-0.0414,-0.042,-0.0426,-0.0416,-0.0402,-0.0402,-0.0358,-0.0337,-0.0305,-0.0269,-0.0219,-0.0156,-0.0104,-0.0084,-0.0054,-0.0015,0.0004,0.0023,0.0043,0.0038,0.0084,0.0092,0.0009,0.001,0.001,0.0011,0,0,-0.046,-0.0456,-0.0458,-0.0466,-0.0434,-0.0428,-0.0409,-0.0375,-0.036,-0.0304,-0.0276,-0.0206,-0.0165,-0.0133,-0.0082,-0.0038,0.0008,-0.0007,-0.0003,0.003,0.0115,0.0154,0.0167,0.0033,0.0035,0.0036,0.0139,0,-0.0501,-0.0535,-0.0512,-0.0535,-0.0548,-0.0497,-0.0484,-0.0443,-0.0395,-0.0353,-0.0274,-0.0229,-0.0184,-0.0158,-0.0106,-0.0017,0.0027,-0.0023,0.012,0.0124,0.0155,0.0178,0.0133,0.0224,0.0148,0.0149,0.015,0,-0.0545,-0.0563,-0.06,-0.06,-0.0599,-0.0599,-0.0565,-0.0545,-0.0467,-0.0428,-0.036,-0.0292,-0.0209,-0.0177,-0.003,-0.0063,0.0016,0.0083,0.0089,0.015,0.0179,0.0218,0.0242,0.0165,0.0163,0.0162,0.0161,0,-0.0602,-0.0621,-0.0656,-0.0656,-0.0646,-0.0646,-0.0632,-0.0571,-0.0553,-0.0471,-0.0442,-0.0331,-0.0271,-0.0158,-0.0011,-0.002,0.0151,0.0159,0.0269,0.0272,0.0275,0.0277,0.0255,0.0254,0.0254,0.0254,0.0254,0,-0.0657,-0.0683,-0.0688,-0.0708,-0.0741,-0.0706,-0.0715,-0.0679,-0.0623,-0.0601,-0.0487,-0.0435,-0.0264,-0.0139,-0.0018,0.016,0.0152,0.0272,0.0307,0.0255,0.0254,0.0233,0.0229,0.0258,0.0257,0.0256,0.0256,0,-0.0714,-0.0717,-0.0761,-0.0769,-0.0774,-0.0796,-0.0785,-0.0784,-0.0718,-0.0682,-0.0658,-0.0505,-0.0333,-0.0154,0.0046,0.0155,0.0315,0.0375,0.0302,0.0327,0.0399,0.0392,0.0506,0.0508,0.051,0.0512,0.0513,0,-0.0748,-0.0777,-0.0816,-0.0847,-0.0854,-0.0876,-0.089,-0.0843,-0.0832,-0.0721,-0.0706,-0.053,-0.0392,-0.0073,0.0146,0.0378,0.0376,0.0468,0.0447,0.0405,0.0428,0.0417,0.0407,0.0426,0.0427,0.0427,0.0427,0,-0.0808,-0.082,-0.0855,-0.0924,-0.0957,-0.0987,-0.0995,-0.1002,-0.0932,-0.0877,-0.0766,-0.0644,-0.0324,-0.0064,0.0246,0.0373,0.0429,0.0486,0.0476,0.037,0.0339,0.0358,0.0349,0.0432,0.0431,0.0431,0.0431,0.043,-0.0844,-0.0887,-0.0935,-0.0997,-0.1041,-0.1082,-0.1103,-0.1084,-0.1058,-0.0956,-0.083,-0.0629,-0.0358,0.0078,0.0302,0.0507,0.0503,0.0544,0.0539,0.0534,0.0507,0.0482,0.0595,0.0596,0.0596,0.0596,0.0597,0,-0.0886,-0.0935,-0.1003,-0.1073,-0.1133,-0.1136,-0.116,-0.1149,-0.1113,-0.0988,-0.0853,-0.0556,-0.0245,0.0038,0.0364,0.0566,0.0539,0.0595,0.0512,0.0507,0.0503,0.047,0.0552,0.0552,0.0553,0.0553,0,0,-0.0909,-0.0982,-0.1021,-0.1132,-0.1182,-0.1233,-0.1245,-0.1202,-0.1115,-0.0985,-0.0833,-0.0611,-0.0257,-0.0036,0.0222,0.0393,0.0394,0.0407,0.042,0.0286,0.0279,0.0451,0.0394,0,0,0,0,0]}],[{"header":{"parameterUnit":"m.s-1","parameterCategory":2,"la1":30.2991,"la2":30.254,"lo1":-89.0895,"lo2":-89.0444,"dy":0.0017,"dx":0.0017,"nx":28,"ny":28,"refTime":"2024-12-13T09:00:00:Z","depth":"4","parameterNumber":2,"parameterNumberName":"U-component_of_CURRENTS"},"data":[0,0,0,0,0,0,0,0,0,0,0,0,0,0,0,0,0,0,0,0,0,0,0,0,0,0,0,0,0,0,0,0,0,0,0,0,0,0,0,0,0,0,0,0,0,0,0,0,0,0,0,0,0,0,0,0,0,0,-0.1488,-0.1488,0,-0.1545,-0.1546,-0.1546,-0.158,-0.158,-0.1581,-0.1581,-0.1627,-0.1628,-0.1629,0,0,0,0,0,0,0,0,0,0,0,0,0,-0.1403,-0.1405,-0.1488,-0.1488,-0.1489,-0.1545,-0.1546,-0.1546,-0.158,-0.158,-0.1581,-0.1581,-0.1627,-0.1628,-0.1629,0,0,0,0,0,0,0,0,0,0,0,0,0,-0.1447,-0.1405,-0.1487,-0.1514,-0.1517,-0.1545,-0.1546,-0.1546,-0.158,-0.158,-0.1581,-0.1581,-0.1627,-0.1628,-0.1629,-0.1629,0,0,-0.1634,-0.1634,0,0,0,0,0,0,0,0,-0.1444,-0.145,-0.1509,-0.1512,-0.1516,-0.1557,-0.1533,-0.1574,-0.158,-0.1554,-0.1581,-0.1582,-0.1604,-0.1607,-0.1615,-0.1631,-0.1633,-0.1634,-0.1635,-0.1635,-0.1636,0,0,0,0,0,0,0,-0.1441,-0.1447,-0.1509,-0.151,-0.1514,-0.1522,-0.1529,-0.1541,-0.1574,-0.1557,-0.156,-0.1569,-0.1605,-0.1613,-0.1616,-0.1634,-0.1634,-0.1635,-0.1636,-0.1637,-0.1722,-0.1724,0,0,0,0,0,0,-0.1437,-0.1444,-0.1507,-0.1511,-0.1482,-0.1523,-0.1531,-0.1542,-0.1574,-0.158,-0.1568,-0.157,-0.161,-0.1614,-0.1618,-0.1686,-0.1635,-0.1637,-0.1638,-0.1721,-0.1723,-0.1724,0,0,0,0,0,0,-0.1435,-0.1442,-0.1505,-0.148,-0.1489,-0.1525,-0.1537,-0.1543,-0.1577,-0.1584,-0.1589,-0.1599,-0.1611,-0.1616,-0.1655,-0.1686,-0.1637,-0.1639,-0.1719,-0.1722,-0.1724,-0.178,0,0,0,0,0,0,-0.1433,-0.1441,-0.146,-0.148,-0.149,-0.1541,-0.1537,-0.1544,-0.1581,-0.1584,-0.1611,-0.1615,-0.1612,-0.1653,-0.1657,-0.1687,-0.164,-0.1718,-0.172,-0.1723,-0.1776,-0.1784,-0.179,0,0,0,0,0,-0.143,-0.145,-0.1461,-0.1469,-0.1511,-0.1543,-0.1549,-0.1574,-0.1582,-0.1605,-0.1624,-0.1615,-0.1673,-0.1656,-0.166,-0.169,-0.1716,-0.172,-0.1723,-0.1773,-0.1782,-0.179,0,0,0,0,0,0,-0.1424,-0.1457,-0.1468,-0.1499,-0.1529,-0.155,-0.1576,-0.159,-0.1622,-0.1632,-0.1634,-0.1639,-0.1685,-0.1681,-0.1662,-0.1723,-0.1693,-0.1697,-0.173,-0.1739,-0.1745,-0.1743,-0.1641,0,0,0,0,0,-0.1431,-0.1457,-0.1486,-0.1513,-0.1531,-0.1558,-0.1578,-0.1597,-0.1622,-0.1639,-0.1658,-0.1678,-0.1697,-0.1713,-0.1729,-0.1763,-0.1746,-0.1785,-0.1792,-0.1798,-0.1799,-0.18,-0.1806,-0.1735,-0.1735,-0.1735,0,0,-0.1437,-0.1458,-0.1474,-0.1515,-0.1539,-0.1573,-0.1572,-0.1613,-0.1646,-0.1637,-0.1695,-0.1706,-0.1712,-0.1752,-0.1772,-0.1755,-0.1811,-0.1802,-0.1807,-0.1804,-0.1804,-0.181,-0.1816,-0.1737,-0.1737,-0.1736,0,0,-0.1454,-0.1482,-0.1508,-0.1538,-0.1583,-0.1601,-0.1619,-0.1659,-0.1686,-0.1734,-0.1736,-0.1768,-0.1802,-0.1812,-0.1818,-0.1873,-0.1848,-0.1883,-0.1916,-0.1918,-0.1923,-0.1928,-0.1919,-0.1923,-0.1885,-0.1886,-0.1886,0,-0.1462,-0.1496,-0.1522,-0.1556,-0.1585,-0.1617,-0.1652,-0.1684,-0.1734,-0.1757,-0.1763,-0.1818,-0.1828,-0.1864,-0.1887,-0.1889,-0.188,-0.1883,-0.1926,-0.193,-0.1934,-0.1924,-0.1927,-0.1889,-0.1888,-0.1888,-0.1888,0,-0.149,-0.153,-0.155,-0.1602,-0.1637,-0.1676,-0.1719,-0.1762,-0.1796,-0.1821,-0.1876,-0.1891,-0.1918,-0.1932,-0.1929,-0.1966,-0.1948,-0.1934,-0.1902,-0.1944,-0.1931,-0.1933,-0.1893,-0.1892,-0.1891,-0.189,0,0,-0.147,-0.1554,-0.1563,-0.1597,-0.1666,-0.1694,-0.1757,-0.1812,-0.185,-0.19,-0.1941,-0.1983,-0.199,-0.1998,-0.1999,-0.2007,-0.2031,-0.1988,-0.1986,-0.1974,-0.2029,-0.1899,-0.1888,-0.2024,-0.2025,-0.2025,-0.201,0,-0.1485,-0.155,-0.1592,-0.166,-0.1696,-0.1751,-0.1803,-0.1859,-0.1904,-0.1954,-0.1978,-0.2018,-0.2015,-0.2032,-0.2042,-0.2035,-0.2039,-0.2036,-0.1995,-0.1993,-0.1867,-0.1887,-0.2028,-0.2011,-0.2012,-0.2012,-0.2012,0,-0.1491,-0.1536,-0.1605,-0.1689,-0.1711,-0.176,-0.1842,-0.1893,-0.1964,-0.1998,-0.204,-0.2057,-0.2091,-0.2075,-0.2082,-0.2081,-0.2063,-0.2051,-0.2049,-0.1906,-0.1866,-0.196,-0.2015,-0.2015,-0.2015,-0.2015,-0.2015,0,-0.1447,-0.1541,-0.1597,-0.1628,-0.1727,-0.1773,-0.1828,-0.1907,-0.1948,-0.2026,-0.2055,-0.2095,-0.2113,-0.2108,-0.209,-0.2092,-0.2079,-0.2072,-0.1936,-0.1927,-0.2024,-0.202,-0.2068,-0.2068,-0.2069,-0.2069,-0.2069,0,-0.1429,-0.1476,-0.1586,-0.1616,-0.1679,-0.1759,-0.1828,-0.1887,-0.1966,-0.1997,-0.2071,-0.2081,-0.2122,-0.2118,-0.21,-0.2014,-0.2084,-0.1937,-0.1911,-0.205,-0.2048,-0.2026,-0.2021,-0.2068,-0.2068,-0.2068,-0.2068,0,-0.1365,-0.1443,-0.1508,-0.1623,-0.166,-0.1704,-0.1815,-0.185,-0.1945,-0.1985,-0.2009,-0.2077,-0.2067,-0.2083,-0.2069,-0.2002,-0.195,-0.1902,-0.2047,-0.203,-0.1799,-0.1797,-0.1749,-0.1744,-0.174,-0.1736,-0.1734,0,-0.1335,-0.1365,-0.149,-0.1523,-0.1579,-0.166,-0.1703,-0.1818,-0.1847,-0.1953,-0.1947,-0.1989,-0.2012,-0.1883,-0.1923,-0.187,-0.1847,-0.1812,-0.1808,-0.1784,-0.1765,-0.177,-0.1774,-0.1727,-0.1726,-0.1725,-0.1724,0,-0.1264,-0.1322,-0.1372,-0.144,-0.1498,-0.1553,-0.1626,-0.1634,-0.1747,-0.1853,-0.1827,-0.1816,-0.1801,-0.1783,-0.1752,-0.1718,-0.1832,-0.1769,-0.1777,-0.1773,-0.1758,-0.1744,-0.1753,-0.171,-0.1712,-0.1713,-0.1714,0,-0.1204,-0.1217,-0.1286,-0.1329,-0.1396,-0.141,-0.1474,-0.15,-0.1545,-0.1666,-0.1648,-0.1699,-0.1771,-0.1702,-0.1674,-0.163,-0.1608,-0.1554,-0.1573,-0.1589,-0.1543,-0.1501,-0.1344,0,0,0,0,0,-0.1133,-0.1131,-0.1165,-0.1205,-0.1264,-0.13,-0.1396,-0.1463,-0.1574,-0.1507,-0.1575,-0.1553,-0.1518,-0.1549,-0.1467,-0.1605,-0.1616,-0.1505,-0.1566,-0.1632,-0.1648,-0.1609,0,0,0,0,0,0,-0.1085,-0.1113,-0.112,-0.1081,-0.1081,-0.1131,-0.1185,-0.1271,-0.1247,-0.1367,-0.1352,-0.1447,-0.1433,-0.1528,-0.1428,-0.1437,-0.1441,-0.1548,-0.1543,-0.1622,-0.1637,-0.165,-0.1616,0,0,0,0,0]},{"header":{"parameterUnit":"m.s-1","parameterCategory":2,"la1":30.2991,"la2":30.254,"lo1":-89.0895,"lo2":-89.0444,"dy":0.0017,"dx":0.0017,"nx":28,"ny":28,"refTime":"2024-12-13T09:00:00:Z","depth":"4","parameterNumber":3,"parameterNumberName":"V-component_of_CURRENTS"},"data":[0,0,0,0,0,0,0,0,0,0,0,0,0,0,0,0,0,0,0,0,0,0,0,0,0,0,0,0,0,0,0,0,0,0,0,0,0,0,0,0,0,0,0,0,0,0,0,0,0,0,0,0,0,0,0,0,0,0,-0.0174,-0.0174,0,-0.0124,-0.0123,-0.0122,-0.0089,-0.0089,-0.0089,-0.0089,-0.001,-0.0008,-0.0006,0,0,0,0,0,0,0,0,0,0,0,0,0,-0.0199,-0.0199,-0.0174,-0.0174,-0.0173,-0.0124,-0.0123,-0.0122,-0.0089,-0.0089,-0.0089,-0.0089,-0.0011,-0.0008,-0.0006,0,0,0,0,0,0,0,0,0,0,0,0,0,-0.0172,-0.0199,-0.0174,-0.0152,-0.0149,-0.0124,-0.0123,-0.0122,-0.0089,-0.0089,-0.0089,-0.0089,-0.0011,-0.0008,-0.0005,0.001,0,0,0.0004,0.0005,0,0,0,0,0,0,0,0,-0.0173,-0.0171,-0.0155,-0.0153,-0.015,-0.0114,-0.0103,-0.0077,-0.0089,-0.0111,-0.0089,-0.0089,-0.0043,-0.0037,-0.0027,0.0014,0.0017,0.0004,0.0006,0.0007,0.0008,0,0,0,0,0,0,0,-0.0175,-0.0172,-0.0153,-0.0155,-0.0152,-0.013,-0.0126,-0.0098,-0.0077,-0.0109,-0.0107,-0.0103,-0.0041,-0.003,-0.0025,0.0018,0.0004,0.0007,0.0008,0.001,0.0082,0.0082,0,0,0,0,0,0,-0.0186,-0.0175,-0.0155,-0.0152,-0.0163,-0.013,-0.0125,-0.0125,-0.0078,-0.0071,-0.0103,-0.0102,-0.0035,-0.0028,-0.0022,0.0,0.0007,0.001,0.0012,0.0082,0.0082,0.0082,0,0,0,0,0,0,-0.0187,-0.0185,-0.0157,-0.0163,-0.0158,-0.013,-0.0129,-0.0124,-0.0115,-0.0074,-0.0066,-0.01,-0.0035,-0.0026,0.0002,0.0004,0.0011,0.0014,0.0082,0.0082,0.0082,0.0044,0,0,0,0,0,0,-0.0188,-0.0186,-0.0191,-0.0164,-0.0158,-0.0148,-0.0129,-0.0123,-0.0113,-0.0111,-0.0069,-0.0061,-0.0034,-0.0003,0.0005,0.0008,0.0016,0.0082,0.0082,0.0082,0.0045,0.0043,0.0041,0,0,0,0,0,-0.0189,-0.0198,-0.0192,-0.019,-0.0166,-0.0148,-0.0143,-0.0121,-0.0114,-0.0112,-0.0082,-0.0063,0.0004,-0.0,0.0009,0.0013,0.0081,0.0082,0.0082,0.0046,0.0043,0.0041,0,0,0,0,0,0,-0.0212,-0.0195,-0.0188,-0.0191,-0.0174,-0.0143,-0.0142,-0.0126,-0.0101,-0.01,-0.006,-0.005,-0.0025,-0.0002,-0.0008,0.0034,0.0046,0.0048,0.0015,0.0013,0.0011,-0.0001,0.0019,0,0,0,0,0,-0.0221,-0.0224,-0.0201,-0.0204,-0.0198,-0.0171,-0.0162,-0.0148,-0.0122,-0.0112,-0.0081,-0.0048,-0.0017,0.0001,0.003,0.0052,0.0078,0.0061,0.0059,0.0057,0.0053,0.0098,0.0099,0.0083,0.0083,0.0083,0,0,-0.0232,-0.0223,-0.0225,-0.021,-0.0195,-0.019,-0.0165,-0.0157,-0.0149,-0.0106,-0.0088,-0.0055,-0.0013,0.0013,0.0027,0.0033,0.0074,0.0057,0.0055,0.0053,0.0098,0.01,0.0101,0.0083,0.0083,0.0083,0,0,-0.0254,-0.0247,-0.0256,-0.0244,-0.0228,-0.0209,-0.0209,-0.0181,-0.0165,-0.0144,-0.0109,-0.0077,-0.0034,0.0001,0.0023,0.0028,0.006,0.0036,0.0018,0.0061,0.0062,0.0064,0.0093,0.0097,0.0036,0.0036,0.0036,0,-0.0269,-0.0277,-0.0255,-0.0258,-0.0254,-0.0221,-0.0227,-0.0204,-0.0169,-0.0156,-0.0145,-0.0073,-0.0039,0.0003,0.0005,0.0023,0.0047,0.0023,0.0057,0.006,0.0062,0.0091,0.0097,0.0034,0.0034,0.0035,0.0035,0,-0.0293,-0.0301,-0.0305,-0.0299,-0.0289,-0.029,-0.0258,-0.0244,-0.0222,-0.0195,-0.0155,-0.0103,-0.0061,-0.0042,-0.0017,0.0019,0.003,0.0048,0.0061,0.0061,0.0092,0.0099,0.0032,0.0032,0.0033,0.0033,0,0,-0.0324,-0.0324,-0.0327,-0.0336,-0.0313,-0.031,-0.0294,-0.027,-0.0262,-0.0216,-0.0197,-0.0134,-0.0104,-0.0077,-0.0035,0.0005,0.0042,0.0028,0.0032,0.0052,0.0127,0.0115,0.0121,0.0067,0.0068,0.0068,0.0139,0,-0.0351,-0.0377,-0.0362,-0.0382,-0.0392,-0.0359,-0.0349,-0.032,-0.0286,-0.0258,-0.0192,-0.0158,-0.0117,-0.0098,-0.005,0.0022,0.0059,0.0021,0.0129,0.0132,0.0117,0.0128,0.0072,0.0144,0.0146,0.0147,0.0148,0,-0.0378,-0.0394,-0.0424,-0.0432,-0.0433,-0.0437,-0.042,-0.0405,-0.0348,-0.0321,-0.0266,-0.0213,-0.0142,-0.0114,0.0011,-0.0015,0.0048,0.0103,0.0107,0.0113,0.0132,0.0148,0.016,0.0159,0.0158,0.0157,0.0157,0,-0.0416,-0.0436,-0.0467,-0.0469,-0.0469,-0.0476,-0.0471,-0.0429,-0.0421,-0.036,-0.0344,-0.0248,-0.0204,-0.0104,0.0015,0.0014,0.0146,0.0161,0.0209,0.0209,0.0215,0.0213,0.024,0.024,0.024,0.024,0.024,0,-0.0448,-0.0474,-0.0493,-0.051,-0.0548,-0.0526,-0.0546,-0.0522,-0.0487,-0.0476,-0.0384,-0.035,-0.02,-0.0102,0.0003,0.0127,0.0142,0.0207,0.0229,0.0197,0.0191,0.022,0.0216,0.0242,0.0242,0.0241,0.0241,0,-0.048,-0.0492,-0.0535,-0.0557,-0.057,-0.0597,-0.061,-0.0616,-0.0574,-0.0555,-0.0538,-0.0423,-0.0291,-0.0141,0.0025,0.0103,0.0227,0.0264,0.0209,0.0228,0.0262,0.0256,0.0323,0.0323,0.0323,0.0323,0.0324,0,-0.0497,-0.0524,-0.058,-0.0616,-0.0633,-0.0668,-0.0691,-0.0668,-0.0666,-0.0597,-0.0587,-0.0464,-0.037,-0.0142,0.0011,0.0212,0.0237,0.0293,0.0285,0.0256,0.0272,0.0265,0.0259,0.0324,0.0324,0.0324,0.0324,0,-0.053,-0.0556,-0.0592,-0.0669,-0.0714,-0.0755,-0.0779,-0.0784,-0.0743,-0.071,-0.0617,-0.0485,-0.0339,-0.0153,0.0005,0.0148,0.0256,0.0295,0.0296,0.0289,0.0258,0.0272,0.0266,0.0325,0.0325,0.0324,0.0324,0,-0.0554,-0.0592,-0.0647,-0.0709,-0.0774,-0.0816,-0.0826,-0.0809,-0.0796,-0.0707,-0.0681,-0.0505,-0.04,-0.0187,-0.0041,0.0102,0.0134,0.017,0.0178,0.0179,0.0117,0.0056,0.008,0,0,0,0,0,-0.0569,-0.0614,-0.0681,-0.0749,-0.0814,-0.0846,-0.0871,-0.0864,-0.0826,-0.0768,-0.0718,-0.0575,-0.0342,-0.0239,-0.0098,-0.0047,0.0148,0.0119,0.019,0.0328,0.0327,0.0279,0,0,0,0,0,0,-0.0581,-0.0646,-0.0681,-0.0766,-0.0817,-0.0879,-0.0896,-0.0872,-0.0826,-0.0769,-0.0643,-0.0558,-0.033,-0.0422,-0.0101,-0.0057,0.0003,0.0236,0.0238,0.0329,0.0328,0.0327,0.0278,0,0,0,0,0]}]]